Weather in Siva

Russia / Perm Krai     58°22′53″N   54°22′46″E
temp.,
°C
wind,
m/s
gust,
m/s
humid.,
%
clouds,
%
prec.,
mm/h
press.,
hPa
HPBL,
m
19 january, tue
tue1923:00−23wsw119676 0.0 102220
02:00−23ssw129767 0.0 102220
05:00−24s019766 0.0 102220
08:00−24e129892 0.0 102120
11:00−23e129895 0.0 102051
14:00−19e1291100 0.0 1019153
17:00−19ne2495100 0.0 1017104
20:00−19ne2496100 0.0 1015133
20 january, wed
wed2023:00−19ne2494100 0.0 1014102
02:00−16ne2297100 0.2 101374
05:00−15ne1297100 0.3 101247
08:00−14nne1197100 0.3 101125
11:00−14nw1196100 0.6 101154
14:00−13wnw1293100 0.1 1011216
17:00−15wnw239799 0.2 101184
20:00−20w229889 0.0 101126
21 january, thu
thu2123:00−21wsw239860 0.1 101176
02:00−18wsw269791 0.2 1011246
05:00−19w279795 0.3 1012214
08:00−21wsw239889 0.0 101269
11:00−21wsw249890 0.1 1013121
14:00−17wsw2594100 0.0 1013318
17:00−17sw2696100 0.1 1012249
20:00−19wsw259899 0.0 101296
22 january, fri
fri2223:00−18sw129899 0.1 101124
02:00−17s1298100 0.3 101025
05:00−16ssw1297100 0.6 100924
08:00−17ene019795 0.2 101020
11:00−16nne119794 0.3 101150
14:00−14n129294 0.1 1012275
17:00−17n229795 0.1 101453
20:00−21n229896 0.0 101629
23 january, sat
sat2323:00−23nne229895 0.1 101820
02:00−23ne229995 0.0 102122
05:00−25e239997 0.0 102347
08:00−25ese3797100 0.0 1025216
11:00−25ese3896100 0.0 1026268
14:00−23ese4795100 0.0 1025297
17:00−22ese4898100 0.3 1023317
20:00−21ese4998100 1.1 1023333